Hourly Data Report for May 05, 2021

TORONTO CITY
ONTARIO
Current Station Operator: ECCC - MSC

43°40'00.000" N
79°24'00.000" W
112.50 m
6158355
71508
XTO

Download Data

Hourly Data (May 2021)
Hourly Data Report for May 5, 2021
TIME
LST
Temp Definition
°C
Dew Point Definition
°C
Rel Hum Definition
%
Precip. Amount Definition
mm

Wind Dir Definition
10's deg

Wind Spd Definition
km/h
Visibility Definition
km
Stn Press Definition
kPa
Hmdx Definition


Wind Chill Definition


Weather Definition


00:00 9.8 7.6 86 0.0       99.27     LegendNANA
01:00 9.8 6.8 82 0.0       99.34     LegendNANA
02:00 9.8 6.6 80 0.0       99.38     LegendNANA
03:00 9.9 6.6 80 0.0       99.38     LegendNANA
04:00 9.8 6.6 81 0.0       99.38     LegendNANA
05:00 9.7 6.5 80 0.0       99.41     LegendNANA
06:00 9.3 6.3 81 0.0       99.47     LegendNANA
07:00 9.2 5.8 79 0.0       99.51     LegendNANA
08:00 9.5 5.3 75 0.0       99.57     LegendNANA
09:00 9.3 5.1 75 0.0       99.62     LegendNANA
10:00 10.0 5.4 73 0.0       99.65     LegendNANA
11:00 10.4 5.0 69 0.0       99.72     LegendNANA
12:00 12.3 4.8 60 0.0       99.73     LegendNANA
13:00 11.2 4.2 62 0.0       99.76     LegendNANA
14:00 12.2 5.1 62 0.0       99.78     LegendNANA
15:00 10.7 6.1 73 0.0       99.81     LegendNANA
16:00 12.9 4.0 55 0.0       99.84     LegendNANA
17:00 11.1 3.4 59 0.0       99.92     LegendNANA
18:00 10.7 3.3 61 0.0       100.01     LegendNANA
19:00 9.9 1.2 55 0.0       100.11     LegendNANA
20:00 9.8 2.1 59 0.0       100.18     LegendNANA
21:00 8.7 3.4 70 0.0       100.28     LegendNANA
22:00 7.8 3.3 73 0.0       100.34     LegendNANA
23:00 7.1 2.9 74 0.0       100.36     LegendNANA

Notes on Data Quality.

Legend

  • E = Estimated
  • M = Missing
  • NA = Not Available*
  • [empty] = Indicates an unobserved value
Date modified: